Location: Unspecified
(0.0000°N, 0.0000°E)
Time: 01:56:01
(UTC+00:00)

Vanguard 1 - Pass Details

Date: 19 November 2019
Orbit: 652 x 3832 km, 34.3° (Epoch: 10 December)

Event Time Altitude Azimuth Distance (km) Brightness Sun altitude
Rises 19:30:37 0° 289° (WNW) 3,515 13.7 -24.7°
Reaches altitude 10° 19:32:48 10° 282° (WNW) 2,795 13.1 -25.2°
Maximum altitude 19:39:19 47° 209° (SSW) 1,826 11.6 -26.7°
Drops below altitude 10° 19:51:02 10° 139° (SE) 4,919 13.4 -29.4°
Sets 19:56:17 0° 134° (SE) 6,469 14.0 -30.6°
